Погода в Шонле

Вьетнам     21°19′43″N   103°55′44″E
темп.,
°C
ветер,
м/с
пор.,
м/с
влажн.,
%
обл.,
%
осадки,
мм/ч
давл.,
гПа
погр.,
м
15 августа, пн
пн1501:00+21зюз11965 0.0 100811
04:00+20зюз119776 0.1 100712
07:00+22з019510 0.3 100883
10:00+27с117323 0.1 1007812
13:00+29св016959 1.2 10051111
16:00+27юв238881 2.5 1003408
19:00+23ююв23955 6.2 100557
22:00+22ююв23977 0.3 100879
16 августа, вт
вт1601:00+21ююв11977 0.3 100721
04:00+20ююв119899 0.0 100619
07:00+22ююв119611 0.0 100899
10:00+26вюв118557 0.8 1008632
13:00+29юв226818 1.5 10051148
16:00+28вюв23745 0.3 1003889
19:00+23ююв22956 1.9 100441
22:00+22ююв249881 0.4 100787
17 августа, ср
ср1701:00+21ю119893 1.9 100719
04:00+21ю119891 0.1 100615
07:00+22ю1196100 0.1 100884
10:00+27св1177100 0.1 1007781
13:00+30ююв0065100 1.1 10041234
16:00+30в1168100 0.8 10021151
19:00+23ююв2394100 2.5 100446
22:00+22ююв229675 1.1 100640
18 августа, чт
чт1801:00+21ю119891 3.2 100617
04:00+20ююз119890 7.5 100517
07:00+22зюз019718 7.8 100696
10:00+27с117733 0.3 1006733
13:00+30ссв126338 0.5 10031122
16:00+30в007012 1.2 1001628
19:00+23ююв229214 3.3 100326
22:00+22ю23957 0.7 100556
19 августа, пт
пт1901:00+21ю119711 3.2 100517
04:00+21ю119672 0.2 100411
07:00+22ю01952 0.2 100567
10:00+28в11748 0.0 1005732
13:00+30в216711 0.4 10021050
16:00+29в12752 0.8 1001657
19:00+23ююв22937 2.8 100322
22:00+22ююв229693 0.6 100545